Flag for U.S.A. Weather past 2 weeks in Ontario, California, U.S.A.

Now
88 °F

Passing clouds.


Feels Like: 88 °F
Forecast: 70 / 92 °F
Wind: 13 mph from West

Location: Ontario International Airport

Current Time: Aug 1, 2014 at 7:35:59 PM

Latest Report: Aug 1, 2014 at 6:53 PM


Visibility: 10 mi

Pressure: 29.79 "Hg

Humidity: 42%

Dew point: 62 °F

Location of OntarioLocation

Historic Weather in Ontario — Graph

°F

Ontario temperature yesterday

Maximum temperature yesterday: 98 °F (at 2:53 PM)
Minimum temperature yesterday: 72 °F (at 3:53 AM)
Average temperature yesterday: 83 °F

Past Weeks' High & Low Weather Summary

 TemperatureHumidityPressure
High104 °F (Jul 24, 2:53 PM)87% (Jul 21, 5:53 AM)30.07 "Hg (Jul 21, 5:53 AM)
Low62 °F (Jul 18, 3:53 AM)11% (Jul 24, 12:53 PM)29.68 "Hg (Jul 24, 5:53 PM)
Average79 °F48%29.91 "Hg
* Reported Jul 17 5:53 PM — Aug 1 5:53 PM, Ontario, Weather by CustomWeather, © 2014

Note: Actual official high and low records may vary slightly from our data, if they occured in-between our weather recording intervals... More about our weather records

Advertising

Ontario weather history for previous 24 hours

 ConditionsComfort  
Time TempWeatherWind HumidityBarometerVisibility
5:53 PM
Aug 1
92 °FPassing clouds.15 mph36%29.79 "Hg10 mi
4:53 PM95 °FPassing clouds.17 mph32%29.80 "Hg10 mi
3:53 PM97 °FPassing clouds.14 mph29%29.80 "Hg10 mi
2:53 PM98 °FPassing clouds.14 mph29%29.80 "Hg10 mi
1:53 PM97 °FPassing clouds.10 mph30%29.82 "Hg9 mi
12:53 PM94 °FPassing clouds.10 mph35%29.84 "Hg9 mi
11:53 AM93 °FPassing clouds.9 mph32%29.85 "Hg9 mi
10:53 AM87 °FSunny.6 mph40%29.86 "Hg8 mi
9:53 AM82 °FSunny.5 mph49%29.87 "Hg8 mi
8:53 AM77 °FPassing clouds.No wind58%29.88 "Hg8 mi
7:53 AM71 °FPassing clouds.3 mph73%29.89 "Hg8 mi
6:53 AM69 °FPassing clouds.3 mph76%29.87 "Hg9 mi
5:53 AM69 °FPassing clouds.3 mph70%29.86 "Hg10 mi
4:53 AM69 °FClear.No wind73%29.86 "Hg10 mi
3:53 AM70 °FClear.No wind68%29.86 "Hg10 mi
2:53 AM71 °FClear.5 mph63%29.85 "Hg10 mi
1:53 AM72 °FClear.5 mph61%29.86 "Hg10 mi
12:53 AM72 °FClear.6 mph59%29.87 "Hg10 mi
11:53 PM
Jul 31
75 °FPassing clouds.6 mph58%29.88 "Hg10 mi
10:53 PM77 °FPassing clouds.9 mph54%29.87 "Hg10 mi
9:53 PM79 °FPassing clouds.8 mph50%29.85 "Hg10 mi
8:53 PM82 °FPassing clouds.10 mph48%29.83 "Hg10 mi
7:53 PM86 °FPassing clouds.9 mph43%29.80 "Hg10 mi
Weather by CustomWeather, © 2014

See weather overviewHow to use our weather pages